Location: Munkebjergskolens Observatorium
(55.3864°N, 10.3987°E)
Time: 23:38:09
(UTC+01:00)

ACS3 Solar Sail - Visible Passes

Search period start: 17 January 2026 00:00
Search period end: 27 January 2026 00:00
Orbit: 897 x 980 km, 97.2° (Epoch: 17 January)

Date Brightness Start Highest point End Pass type
(mag) Time Alt. Az. Time Alt. Az. Time Alt. Az.
17 Jan 4.4 02:35:16 10° NNE 02:35:40 12° NNE 02:35:40 12° NNE visible
17 Jan 3.8 04:18:18 10° N 04:19:32 16° N 04:19:32 16° N visible
17 Jan 3.8 06:03:05 10° NNW 06:03:24 10° NNW 06:03:24 10° NNW visible
18 Jan 4.3 02:49:11 10° NNE 02:49:48 13° NNE 02:49:48 13° NNE visible
18 Jan 3.8 04:32:23 10° N 04:33:39 16° N 04:33:39 16° N visible
19 Jan 4.2 03:03:06 10° NNE 03:03:55 14° NNE 03:03:55 14° NNE visible
19 Jan 3.8 04:46:27 10° N 04:47:47 15° N 04:47:47 15° N visible
20 Jan 4.1 03:17:02 10° NNE 03:18:01 15° NNE 03:18:01 15° NNE visible
20 Jan 3.7 05:00:33 10° N 05:01:52 15° NNW 05:01:52 15° NNW visible
21 Jan 4.0 03:30:58 10° N 03:32:06 16° N 03:32:06 16° N visible
21 Jan 3.7 05:14:41 10° N 05:15:58 14° NNW 05:15:58 14° NNW visible
22 Jan 4.6 02:02:13 10° NNE 02:02:18 10° NNE 02:02:18 10° NNE visible
22 Jan 3.9 03:44:54 10° N 03:46:10 17° N 03:46:10 17° N visible
22 Jan 3.7 05:28:51 10° N 05:30:02 13° NNW 05:30:02 13° NNW visible
23 Jan 4.5 02:15:59 10° NNE 02:16:21 12° NNE 02:16:21 12° NNE visible
23 Jan 3.8 03:58:51 10° N 04:00:13 17° N 04:00:13 17° N visible
23 Jan 3.8 05:43:09 10° NNW 05:44:05 12° NNW 05:44:05 12° NNW visible
24 Jan 4.3 02:29:45 10° NNE 02:30:24 13° NNE 02:30:24 13° NNE visible
24 Jan 3.7 04:12:48 10° N 04:14:16 17° N 04:14:16 17° N visible
24 Jan 3.8 05:57:42 10° NNW 05:58:07 10° NNW 05:58:07 10° NNW visible
25 Jan 4.2 02:43:33 10° NNE 02:44:25 15° NNE 02:44:25 15° NNE visible
25 Jan 3.7 04:26:45 10° N 04:28:17 17° N 04:28:17 17° N visible
26 Jan 4.1 02:57:20 10° NNE 02:58:25 16° NNE 02:58:25 16° NNE visible
26 Jan 3.7 04:40:42 10° N 04:42:17 16° NNW 04:42:17 16° NNW visible
